星链-5505 (STARLINK-5505 )

导读

STARLINK-5505是美国太空探索技术公司(SpaceX)星链互联网卫星星座中的一员,于2023年7月7日发射升空。星链计划旨在构建全球卫星互联网,实现全球无缝网络覆盖,该卫星承担为全球偏远地区、海上以及空中用户提供高速互联网接入服务的任务,推进星链星座组网进程。

基本信息
目录编号:
57259
目录名称:
STARLINK-5505
国际标识:
2023-094AT
轨道中心:
EARTH
卫星名称:
星链-5505
卫星全名:
星链-5505 (STARLINK-5505 )
卫星状态:
已陨落 最后检测时间 2024-03-02
发射日期:
2023-07-07 UTC
国别 :
美国 (US)
星等 :
--
轨道信息
数据来源 国际轨道数据
星历时间: 2024-03-01T19:19:10+0800
轨道信息已过期878天
半长轴: 6563.813km
偏心率: 0.0013112
轨道倾角: 42.976°
近地点辐角 240.728°
升交点赤经 319.225°
平近点角 249.359°
近地点: 177.071km
远地点: 194.285km
周期: 88.205分钟
每日圈数: 16.325575
详细信息
固有亮度:
5
最大亮度:
2.4
卫星平台:
Starlink v1.5
覆盖范围:
全球
运营商:
太空探索技术公司
运营商所在国:
美国
制造商(研发单位):
太空探索技术公司
制造商所在国:
美国
使用方式:
暂无
卫星简介
星链(Starlink)计划是由太空探索技术公司(SpaceX)提出的一个巨型低轨卫星互联网星座项目,计划在2019年至2024年间在太空搭建由约1.2万颗卫星组成的“星链”网络,其中1584颗将部署在地球上空550千米处的近地轨道,并从2020年开始工作。该卫星已陨落。